Location: Schommer Observatory
(40.5200°N, 74.4500°W)
Time: 12:20:15
(UTC-05:00)

Envisat - Pass Details

Date: 16 October 2017
Orbit: 764 x 766 km, 98.2° (Epoch: 10 December)

Event Time Altitude Azimuth Distance (km) Brightness Sun altitude
Exits shadow 20:46:14 43° 351° (N) 1,066 3.8 -29.2°
Drops below altitude 10° 20:49:38 10° 348° (NNW) 2,313 5.7 -29.8°
Sets 20:51:57 0° 348° (NNW) 3,244 6.6 -30.3°
